TGM annuale;;;;;;;;;;;;;;;TGM annuale;;;;;;;;;;;;;;;TGM annuale;;;;;;;;;;;;;
Tratta nr.21 SR70, Km 1.000, Pelago(FI) (flussi ascendente/discendente);;;;;;;;;;;;;;;Tratta nr.21 SR70, Km 1.000, Pelago(FI) (flusso ascendente);;;;;;;;;;;;;;;Tratta nr.21 SR70, Km 1.000, Pelago(FI) (flusso discendente);;;;;;;;;;;;;
Anno;01 Motocicli;02 Auto e monovolume;03 Auto e monovolume con rimorchio;04 Furgoncini e camioncini;05 Camion;06 Autotreni;07 Autoarticolati;08 Autobus;09 Veicoli non classificati;Totale;Feriali;Festivi;Prefestivi;;Anno;01 Motocicli;02 Auto e monovolume;03 Auto e monovolume con rimorchio;04 Furgoncini e camioncini;05 Camion;06 Autotreni;07 Autoarticolati;08 Autobus;09 Veicoli non classificati;Totale;Feriali;Festivi;Prefestivi;;Anno;01 Motocicli;02 Auto e monovolume;03 Auto e monovolume con rimorchio;04 Furgoncini e camioncini;05 Camion;06 Autotreni;07 Autoarticolati;08 Autobus;09 Veicoli non classificati;Totale;Feriali;Festivi;Prefestivi
2015;219;7907;8;157;159;7;17;25;0;8499;8381;8765;8760;;2015;56;3972;4;85;77;3;9;14;0;4219;4177;4094;4591;;2015;163;3935;4;72;82;4;9;11;0;4280;4204;4670;4169
;;;;;;;;;;;;;;;;;;;;;;;;;;;;;;;;;;;;;;;;;;;
Tabella flussi 2015;;;;;;;;;;;;;;;Tabella flussi 2015;;;;;;;;;;;;;;;Tabella flussi 2015;;;;;;;;;;;;;
Tratta nr.21 SR70, Km 1.000, Pelago(FI) (flussi ascendente/discendente);;;;;;;;;;;;;;;Tratta nr.21 SR70, Km 1.000, Pelago(FI) (flusso ascendente);;;;;;;;;;;;;;;Tratta nr.21 SR70, Km 1.000, Pelago(FI) (flusso discendente);;;;;;;;;;;;;
;Traffico Totale;;;;;;;;;;Traffico Med.Orario 06:00 - 20:00;Traffico Ora di punta;;;;Traffico Totale;;;;;;;;;;Traffico Med.Orario 06:00 - 20:00;Traffico Ora di punta;;;;Traffico Totale;;;;;;;;;;Traffico Med.Orario 06:00 - 20:00;Traffico Ora di punta;
Giorno;01 Motocicli;02 Auto e monovolume;03 Auto e monovolume con rimorchio;04 Furgoncini e camioncini;05 Camion;06 Autotreni;07 Autoarticolati;08 Autobus;09 Veicoli non classificati;Totale;Totale;Ora di punta;Flusso totale ora di punta;;Giorno;01 Motocicli;02 Auto e monovolume;03 Auto e monovolume con rimorchio;04 Furgoncini e camioncini;05 Camion;06 Autotreni;07 Autoarticolati;08 Autobus;09 Veicoli non classificati;Totale;Totale;Ora di punta;Flusso totale ora di punta;;Giorno;01 Motocicli;02 Auto e monovolume;03 Auto e monovolume con rimorchio;04 Furgoncini e camioncini;05 Camion;06 Autotreni;07 Autoarticolati;08 Autobus;09 Veicoli non classificati;Totale;Totale;Ora di punta;Flusso totale ora di punta
01/01/2015;;;;;;;;;;;;;;;01/01/2015;;;;;;;;;;;;;;;01/01/2015;;;;;;;;;;;;;
02/01/2015;;;;;;;;;;;;;;;02/01/2015;;;;;;;;;;;;;;;02/01/2015;;;;;;;;;;;;;
03/01/2015;;;;;;;;;;;;;;;03/01/2015;;;;;;;;;;;;;;;03/01/2015;;;;;;;;;;;;;
04/01/2015;;;;;;;;;;;;;;;04/01/2015;;;;;;;;;;;;;;;04/01/2015;;;;;;;;;;;;;
05/01/2015;;;;;;;;;;;;;;;05/01/2015;;;;;;;;;;;;;;;05/01/2015;;;;;;;;;;;;;
06/01/2015;;;;;;;;;;;;;;;06/01/2015;;;;;;;;;;;;;;;06/01/2015;;;;;;;;;;;;;
07/01/2015;;;;;;;;;;;;;;;07/01/2015;;;;;;;;;;;;;;;07/01/2015;;;;;;;;;;;;;
08/01/2015;;;;;;;;;;;;;;;08/01/2015;;;;;;;;;;;;;;;08/01/2015;;;;;;;;;;;;;
09/01/2015;;;;;;;;;;;;;;;09/01/2015;;;;;;;;;;;;;;;09/01/2015;;;;;;;;;;;;;
10/01/2015;;;;;;;;;;;;;;;10/01/2015;;;;;;;;;;;;;;;10/01/2015;;;;;;;;;;;;;
11/01/2015;;;;;;;;;;;;;;;11/01/2015;;;;;;;;;;;;;;;11/01/2015;;;;;;;;;;;;;
12/01/2015;;;;;;;;;;;;;;;12/01/2015;;;;;;;;;;;;;;;12/01/2015;;;;;;;;;;;;;
13/01/2015;;;;;;;;;;;;;;;13/01/2015;;;;;;;;;;;;;;;13/01/2015;;;;;;;;;;;;;
14/01/2015;;;;;;;;;;;;;;;14/01/2015;;;;;;;;;;;;;;;14/01/2015;;;;;;;;;;;;;
15/01/2015;;;;;;;;;;;;;;;15/01/2015;;;;;;;;;;;;;;;15/01/2015;;;;;;;;;;;;;
16/01/2015;;;;;;;;;;;;;;;16/01/2015;;;;;;;;;;;;;;;16/01/2015;;;;;;;;;;;;;
17/01/2015;;;;;;;;;;;;;;;17/01/2015;;;;;;;;;;;;;;;17/01/2015;;;;;;;;;;;;;
18/01/2015;;;;;;;;;;;;;;;18/01/2015;;;;;;;;;;;;;;;18/01/2015;;;;;;;;;;;;;
19/01/2015;;;;;;;;;;;;;;;19/01/2015;;;;;;;;;;;;;;;19/01/2015;;;;;;;;;;;;;
20/01/2015;;;;;;;;;;;;;;;20/01/2015;;;;;;;;;;;;;;;20/01/2015;;;;;;;;;;;;;
21/01/2015;;;;;;;;;;;;;;;21/01/2015;;;;;;;;;;;;;;;21/01/2015;;;;;;;;;;;;;
22/01/2015;;;;;;;;;;;;;;;22/01/2015;;;;;;;;;;;;;;;22/01/2015;;;;;;;;;;;;;
23/01/2015;;;;;;;;;;;;;;;23/01/2015;;;;;;;;;;;;;;;23/01/2015;;;;;;;;;;;;;
24/01/2015;;;;;;;;;;;;;;;24/01/2015;;;;;;;;;;;;;;;24/01/2015;;;;;;;;;;;;;
25/01/2015;;;;;;;;;;;;;;;25/01/2015;;;;;;;;;;;;;;;25/01/2015;;;;;;;;;;;;;
26/01/2015;;;;;;;;;;;;;;;26/01/2015;;;;;;;;;;;;;;;26/01/2015;;;;;;;;;;;;;
27/01/2015;;;;;;;;;;;;;;;27/01/2015;;;;;;;;;;;;;;;27/01/2015;;;;;;;;;;;;;
28/01/2015;;;;;;;;;;;;;;;28/01/2015;;;;;;;;;;;;;;;28/01/2015;;;;;;;;;;;;;
29/01/2015;220;6315;9;107;195;9;7;33;0;6895;438;7;613;;29/01/2015;43;3195;6;60;96;4;5;19;0;3428;213;18;322;;29/01/2015;177;3120;3;47;99;5;2;14;0;3467;225;7;447
30/01/2015;268;6406;5;95;141;4;13;37;0;6969;436;7;535;;30/01/2015;44;3299;2;52;70;2;7;22;0;3498;216;18;373;;30/01/2015;224;3107;3;43;71;2;6;15;0;3471;220;7;421
31/01/2015;238;6060;8;49;51;2;1;26;0;6435;396;17;499;;31/01/2015;52;3107;4;30;28;1;1;12;0;3235;196;12;285;;31/01/2015;186;2953;4;19;23;1;0;14;0;3200;200;15;280
01/02/2015;263;5647;6;19;13;0;1;7;0;5956;361;15;581;;01/02/2015;72;2771;3;13;6;0;0;3;0;2868;170;15;317;;01/02/2015;191;2876;3;6;7;0;1;4;0;3088;191;17;388
02/02/2015;218;6402;9;88;208;6;14;37;0;6982;449;7;610;;02/02/2015;49;3169;2;47;104;3;7;18;0;3399;212;18;378;;02/02/2015;169;3233;7;41;104;3;7;19;0;3583;237;7;454
03/02/2015;200;5884;7;90;198;5;7;37;0;6428;412;8;549;;03/02/2015;49;2943;3;50;98;3;5;20;0;3171;197;19;333;;03/02/2015;151;2941;4;40;100;2;2;17;0;3257;215;8;393
04/02/2015;213;6212;9;91;195;2;7;31;0;6760;435;7;555;;04/02/2015;48;3098;6;44;97;1;4;17;0;3315;206;18;341;;04/02/2015;165;3114;3;47;98;1;3;14;0;3445;228;7;436
05/02/2015;226;5742;7;72;137;4;5;35;0;6228;396;7;574;;05/02/2015;32;2877;3;48;59;2;1;19;0;3041;188;19;326;;05/02/2015;194;2865;4;24;78;2;4;16;0;3187;208;7;444
06/02/2015;229;5376;3;88;124;0;4;33;0;5857;363;18;460;;06/02/2015;13;2772;1;50;60;0;0;20;0;2916;177;19;312;;06/02/2015;216;2604;2;38;64;0;4;13;0;2941;185;7;296
07/02/2015;283;6525;6;49;58;0;3;21;0;6945;431;15;576;;07/02/2015;46;3333;3;25;31;0;2;12;0;3452;211;11;304;;07/02/2015;237;3192;3;24;27;0;1;9;0;3493;221;17;323
08/02/2015;265;7759;7;27;21;4;0;8;0;8091;505;17;912;;08/02/2015;38;3873;2;13;9;4;0;3;0;3942;241;15;457;;08/02/2015;227;3886;5;14;12;0;0;5;0;4149;264;17;657
09/02/2015;235;6347;7;88;193;2;12;35;0;6919;445;7;601;;09/02/2015;53;3164;3;46;97;1;7;18;0;3389;212;18;363;;09/02/2015;182;3183;4;42;96;1;5;17;0;3530;233;7;434
10/02/2015;275;6682;4;93;205;3;9;37;0;7308;467;7;627;;10/02/2015;70;3337;2;48;99;2;7;20;0;3585;222;19;379;;10/02/2015;205;3345;2;45;106;1;2;17;0;3723;244;7;450
11/02/2015;237;7275;12;97;226;9;16;33;0;7905;512;17;714;;11/02/2015;46;3629;6;53;109;3;8;18;0;3872;244;18;412;;11/02/2015;191;3646;6;44;117;6;8;15;0;4033;269;7;501
12/02/2015;220;6742;8;94;208;8;23;32;0;7335;468;17;691;;12/02/2015;41;3449;7;50;105;5;14;18;0;3689;229;19;441;;12/02/2015;179;3293;1;44;103;3;9;14;0;3646;238;7;457
13/02/2015;230;7251;9;114;221;8;20;36;0;7889;493;18;624;;13/02/2015;48;3727;3;63;107;4;7;23;0;3982;244;18;417;;13/02/2015;182;3524;6;51;114;4;13;13;0;3907;249;7;453
14/02/2015;244;6774;6;42;61;4;1;21;0;7153;435;16;536;;14/02/2015;52;3483;3;23;27;3;0;12;0;3603;215;13;282;;14/02/2015;192;3291;3;19;34;1;1;9;0;3550;220;16;288
15/02/2015;296;5491;3;31;15;1;0;6;0;5843;343;17;552;;15/02/2015;52;2672;1;16;8;1;0;3;0;2753;156;12;286;;15/02/2015;244;2819;2;15;7;0;0;3;0;3090;186;17;356
16/02/2015;;;;;;;;;;;;;;;16/02/2015;;;;;;;;;;;;;;;16/02/2015;;;;;;;;;;;;;
17/02/2015;;;;;;;;;;;;;;;17/02/2015;;;;;;;;;;;;;;;17/02/2015;;;;;;;;;;;;;
18/02/2015;;;;;;;;;;;;;;;18/02/2015;;;;;;;;;;;;;;;18/02/2015;;;;;;;;;;;;;
19/02/2015;;;;;;;;;;;;;;;19/02/2015;;;;;;;;;;;;;;;19/02/2015;;;;;;;;;;;;;
20/02/2015;206;7527;8;136;247;10;20;32;0;8186;514;7;631;;20/02/2015;40;3866;2;77;130;3;7;17;0;4142;255;19;436;;20/02/2015;166;3661;6;59;117;7;13;15;0;4044;260;7;459
21/02/2015;233;6912;8;40;53;2;3;27;0;7278;446;10;548;;21/02/2015;56;3589;4;18;22;2;1;15;0;3707;221;12;290;;21/02/2015;177;3323;4;22;31;0;2;12;0;3571;225;17;305
22/02/2015;247;5966;4;24;14;0;0;9;0;6264;370;18;610;;22/02/2015;53;2828;2;12;5;0;0;5;0;2905;165;12;259;;22/02/2015;194;3138;2;12;9;0;0;4;0;3359;205;18;413
23/02/2015;199;6692;7;87;240;15;19;32;0;7291;470;17;644;;23/02/2015;29;3340;3;46;113;6;8;19;0;3564;223;19;377;;23/02/2015;170;3352;4;41;127;9;11;13;0;3727;246;7;457
24/02/2015;205;6371;3;99;207;11;18;35;0;6949;446;7;608;;24/02/2015;43;3170;2;57;89;4;6;20;0;3391;212;18;384;;24/02/2015;162;3201;1;42;118;7;12;15;0;3558;234;7;464
25/02/2015;180;6439;7;76;179;13;21;36;0;6951;444;7;630;;25/02/2015;49;3184;3;40;93;4;10;19;0;3402;210;18;349;;25/02/2015;131;3255;4;36;86;9;11;17;0;3549;234;7;469
26/02/2015;202;6665;4;100;194;8;25;36;0;7234;455;17;641;;26/02/2015;51;3390;3;53;96;4;13;20;0;3630;219;18;400;;26/02/2015;151;3275;1;47;98;4;12;16;0;3604;236;7;443
27/02/2015;229;7586;10;102;202;6;16;41;0;8192;512;18;658;;27/02/2015;58;3895;4;59;105;2;11;21;0;4155;255;19;444;;27/02/2015;171;3691;6;43;97;4;5;20;0;4037;257;7;441
28/02/2015;226;7641;9;65;63;2;1;22;0;8029;493;16;591;;28/02/2015;60;3973;4;34;30;2;1;12;0;4116;247;11;327;;28/02/2015;166;3668;5;31;33;0;0;10;0;3913;246;16;350
01/03/2015;266;6599;6;37;23;2;1;10;0;6944;414;17;659;;01/03/2015;36;3171;3;20;11;0;1;5;0;3247;191;12;294;;01/03/2015;230;3428;3;17;12;2;0;5;0;3697;224;17;447
02/03/2015;269;6566;3;82;173;11;29;41;0;7174;460;7;646;;02/03/2015;47;3250;2;40;84;5;14;21;0;3463;216;18;391;;02/03/2015;222;3316;1;42;89;6;15;20;0;3711;244;7;486
03/03/2015;225;6871;12;115;188;11;29;33;0;7484;477;7;632;;03/03/2015;51;3418;6;68;81;5;11;19;0;3659;228;19;384;;03/03/2015;174;3453;6;47;107;6;18;14;0;3825;249;7;457
04/03/2015;198;6978;6;109;211;4;31;33;0;7570;481;7;644;;04/03/2015;45;3502;2;56;105;1;17;16;0;3744;231;18;380;;04/03/2015;153;3476;4;53;106;3;14;17;0;3826;250;7;468
05/03/2015;182;6216;3;98;178;2;16;41;0;6736;432;7;612;;05/03/2015;73;3113;2;52;93;1;9;21;0;3364;208;18;364;;05/03/2015;109;3103;1;46;85;1;7;20;0;3372;223;7;461
06/03/2015;207;7466;8;133;213;6;22;41;0;8096;511;17;643;;06/03/2015;59;3826;2;69;106;5;9;21;0;4097;255;19;412;;06/03/2015;148;3640;6;64;107;1;13;20;0;3999;256;7;447
07/03/2015;244;7495;10;43;69;3;5;24;0;7893;483;16;601;;07/03/2015;63;3863;5;25;34;2;2;14;0;4008;242;10;326;;07/03/2015;181;3632;5;18;35;1;3;10;0;3885;242;16;343
08/03/2015;239;7089;4;36;24;1;0;10;0;7403;440;17;695;;08/03/2015;63;3419;1;16;11;1;0;5;0;3516;205;12;325;;08/03/2015;176;3670;3;20;13;0;0;5;0;3887;234;17;455
09/03/2015;202;6792;6;113;219;7;26;44;0;7409;479;7;670;;09/03/2015;44;3396;3;57;107;2;12;23;0;3644;228;18;384;;09/03/2015;158;3396;3;56;112;5;14;21;0;3765;251;7;486
10/03/2015;172;7073;7;131;214;7;37;42;0;7683;493;7;678;;10/03/2015;37;3529;5;66;108;1;16;22;0;3784;237;19;437;;10/03/2015;135;3544;2;65;106;6;21;20;0;3899;256;7;483
11/03/2015;193;7345;10;124;214;12;20;46;0;7964;512;8;697;;11/03/2015;38;3663;5;71;100;4;8;22;0;3911;243;18;401;;11/03/2015;155;3682;5;53;114;8;12;24;0;4053;269;7;478
12/03/2015;167;7217;9;147;219;11;24;42;0;7836;499;7;671;;12/03/2015;24;3618;4;84;109;6;14;19;0;3878;239;18;362;;12/03/2015;143;3599;5;63;110;5;10;23;0;3958;259;7;463
13/03/2015;241;7965;8;108;206;6;29;45;0;8608;541;17;699;;13/03/2015;48;4145;4;64;97;3;16;25;0;4402;272;19;452;;13/03/2015;193;3820;4;44;109;3;13;20;0;4206;270;7;472
14/03/2015;218;7437;9;63;62;2;1;24;0;7816;480;9;595;;14/03/2015;43;3846;3;35;32;0;0;15;0;3974;242;10;321;;14/03/2015;175;3591;6;28;30;2;1;9;0;3842;238;17;320
15/03/2015;243;6520;3;48;20;0;0;10;0;6844;403;18;606;;15/03/2015;37;3094;1;23;10;0;0;5;0;3170;183;12;306;;15/03/2015;206;3426;2;25;10;0;0;5;0;3674;220;17;403
16/03/2015;183;6838;7;120;208;10;25;39;0;7430;473;7;659;;16/03/2015;31;3358;2;66;100;3;15;19;0;3594;219;18;353;;16/03/2015;152;3480;5;54;108;7;10;20;0;3836;254;7;493
17/03/2015;220;6534;6;99;184;13;24;41;0;7121;449;7;644;;17/03/2015;35;3265;5;55;91;7;12;23;0;3493;214;18;380;;17/03/2015;185;3269;1;44;93;6;12;18;0;3628;235;7;480
18/03/2015;191;7298;4;109;220;10;17;42;0;7891;504;7;692;;18/03/2015;42;3667;3;62;98;3;7;21;0;3903;240;19;358;;18/03/2015;149;3631;1;47;122;7;10;21;0;3988;263;7;503
19/03/2015;223;7516;8;125;197;8;13;41;0;8131;520;7;689;;19/03/2015;40;3805;6;71;98;4;9;21;0;4054;254;18;440;;19/03/2015;183;3711;2;54;99;4;4;20;0;4077;266;7;467
20/03/2015;244;7901;10;137;228;8;16;42;0;8586;538;17;719;;20/03/2015;60;4083;5;83;108;3;7;22;0;4371;270;19;421;;20/03/2015;184;3818;5;54;120;5;9;20;0;4215;268;7;502
21/03/2015;231;7804;10;69;55;0;5;28;0;8202;506;17;646;;21/03/2015;41;4043;5;38;28;0;4;14;0;4173;253;11;327;;21/03/2015;190;3761;5;31;27;0;1;14;0;4029;253;17;397
22/03/2015;223;6970;12;28;35;1;1;5;0;7275;438;17;733;;22/03/2015;49;3332;5;12;12;0;0;4;0;3414;201;12;289;;22/03/2015;174;3638;7;16;23;1;1;1;0;3861;237;17;508
23/03/2015;178;7041;10;118;217;11;11;38;0;7624;489;7;709;;23/03/2015;45;3457;3;63;103;6;6;20;0;3703;230;18;352;;23/03/2015;133;3584;7;55;114;5;5;18;0;3921;259;7;498
24/03/2015;174;7049;9;134;203;12;19;42;0;7642;487;7;658;;24/03/2015;29;3519;3;73;99;6;14;21;0;3764;233;19;393;;24/03/2015;145;3530;6;61;104;6;5;21;0;3878;254;7;474
25/03/2015;204;6829;2;104;192;3;26;41;0;7401;471;7;621;;25/03/2015;25;3418;1;63;91;0;14;20;0;3632;224;18;379;;25/03/2015;179;3411;1;41;101;3;12;21;0;3769;247;7;452
26/03/2015;182;7109;5;134;208;8;24;43;0;7713;488;7;615;;26/03/2015;34;3580;3;77;99;4;13;23;0;3833;235;19;374;;26/03/2015;148;3529;2;57;109;4;11;20;0;3880;253;7;446
27/03/2015;198;7704;13;110;219;6;25;33;0;8308;518;7;664;;27/03/2015;25;4034;4;65;110;2;14;19;0;4273;261;18;439;;27/03/2015;173;3670;9;45;109;4;11;14;0;4035;257;7;469
28/03/2015;260;8358;9;63;75;3;1;23;0;8792;535;18;674;;28/03/2015;69;4389;6;41;34;2;1;11;0;4553;276;10;347;;28/03/2015;191;3969;3;22;41;1;0;12;0;4239;260;18;370
29/03/2015;311;8589;6;40;16;1;0;11;0;8974;536;18;952;;29/03/2015;88;4117;3;22;10;1;0;6;0;4247;255;12;499;;29/03/2015;223;4472;3;18;6;0;0;5;0;4727;281;18;687
30/03/2015;217;7222;7;116;217;10;28;29;0;7846;500;7;678;;30/03/2015;36;3563;4;66;107;2;17;17;0;3812;235;18;379;;30/03/2015;181;3659;3;50;110;8;11;12;0;4034;266;7;502
31/03/2015;187;7361;18;104;192;13;24;38;0;7937;503;7;662;;31/03/2015;22;3706;10;55;88;2;14;20;0;3917;242;18;400;;31/03/2015;165;3655;8;49;104;11;10;18;0;4020;262;7;470
01/04/2015;234;8057;12;135;217;11;24;41;0;8731;551;7;710;;01/04/2015;47;4103;7;74;108;6;16;20;0;4381;268;19;417;;01/04/2015;187;3954;5;61;109;5;8;21;0;4350;283;7;520
02/04/2015;233;8021;4;138;233;7;21;35;0;8692;545;17;660;;02/04/2015;48;4150;2;78;122;5;12;20;0;4437;272;18;415;;02/04/2015;185;3871;2;60;111;2;9;15;0;4255;273;7;437
03/04/2015;211;8353;10;107;196;8;13;24;0;8922;558;17;732;;03/04/2015;28;4440;6;58;99;5;6;14;0;4656;290;18;452;;03/04/2015;183;3913;4;49;97;3;7;10;0;4266;268;7;399
04/04/2015;204;6998;6;60;61;0;1;16;0;7346;443;11;667;;04/04/2015;34;3869;4;36;31;0;0;8;0;3982;234;11;357;;04/04/2015;170;3129;2;24;30;0;1;8;0;3364;209;11;310
05/04/2015;213;7049;5;28;12;2;0;1;0;7310;422;11;787;;05/04/2015;20;3601;3;12;5;1;0;1;0;3643;218;12;544;;05/04/2015;193;3448;2;16;7;1;0;0;0;3667;204;18;414
06/04/2015;260;9058;4;68;40;0;1;7;0;9438;568;17;955;;06/04/2015;43;3956;1;39;18;0;1;4;0;4062;246;11;467;;06/04/2015;217;5102;3;29;22;0;0;3;0;5376;321;17;748
07/04/2015;267;7546;2;93;191;10;13;29;0;8151;505;17;674;;07/04/2015;62;3574;1;52;91;6;8;16;0;3810;224;18;401;;07/04/2015;205;3972;1;41;100;4;5;13;0;4341;281;7;443
08/04/2015;180;7304;11;121;199;7;22;37;0;7881;498;7;664;;08/04/2015;26;3604;6;73;90;4;14;20;0;3837;235;18;402;;08/04/2015;154;3700;5;48;109;3;8;17;0;4044;262;7;480
09/04/2015;249;7700;4;116;240;8;27;39;0;8383;527;17;708;;09/04/2015;52;3859;1;69;117;1;15;21;0;4135;255;19;413;;09/04/2015;197;3841;3;47;123;7;12;18;0;4248;273;7;476
10/04/2015;217;7970;9;130;256;4;26;38;0;8650;538;7;685;;10/04/2015;43;4109;4;79;131;0;12;20;0;4398;269;19;445;;10/04/2015;174;3861;5;51;125;4;14;18;0;4252;269;7;491
11/04/2015;265;8013;15;56;75;2;2;23;0;8451;510;11;630;;11/04/2015;69;4168;10;33;40;1;1;15;0;4337;258;11;347;;11/04/2015;196;3845;5;23;35;1;1;8;0;4114;252;17;359
12/04/2015;266;8131;9;44;22;2;0;11;0;8485;492;18;861;;12/04/2015;75;3874;3;25;7;0;0;4;0;3988;231;12;353;;12/04/2015;191;4257;6;19;15;2;0;7;0;4497;261;18;619
13/04/2015;184;7355;10;138;239;18;18;39;0;8001;509;7;728;;13/04/2015;34;3587;4;72;121;10;8;20;0;3856;238;19;389;;13/04/2015;150;3768;6;66;118;8;10;19;0;4145;272;7;529
14/04/2015;198;7510;11;135;211;10;20;42;0;8137;514;7;708;;14/04/2015;52;3737;4;79;104;3;9;22;0;4010;245;18;421;;14/04/2015;146;3773;7;56;107;7;11;20;0;4127;269;7;503
15/04/2015;224;7685;8;139;247;8;25;32;0;8368;530;7;724;;15/04/2015;60;3815;4;90;111;2;18;19;0;4119;254;18;409;;15/04/2015;164;3870;4;49;136;6;7;13;0;4249;276;7;525
16/04/2015;241;7543;2;126;250;5;27;37;0;8231;517;7;694;;16/04/2015;53;3806;1;73;126;0;11;21;0;4091;250;18;389;;16/04/2015;188;3737;1;53;124;5;16;16;0;4140;266;7;495
17/04/2015;220;8019;5;117;225;10;23;35;0;8654;539;17;717;;17/04/2015;41;4166;2;67;120;7;13;15;0;4431;273;18;445;;17/04/2015;179;3853;3;50;105;3;10;20;0;4223;267;7;507
18/04/2015;214;7803;10;52;81;0;1;21;0;8182;491;9;583;;18/04/2015;41;4087;2;29;38;0;0;13;0;4210;246;12;327;;18/04/2015;173;3716;8;23;43;0;1;8;0;3972;246;10;303
19/04/2015;224;7783;8;36;35;1;0;10;0;8097;482;18;834;;19/04/2015;47;3677;5;16;15;0;0;5;0;3765;222;12;343;;19/04/2015;177;4106;3;20;20;1;0;5;0;4332;259;18;570
20/04/2015;234;7360;17;110;236;10;38;42;0;8047;508;7;710;;20/04/2015;50;3627;9;68;116;4;20;23;0;3917;239;18;399;;20/04/2015;184;3733;8;42;120;6;18;19;0;4130;269;7;511
21/04/2015;242;7564;6;120;245;6;23;35;0;8241;517;7;698;;21/04/2015;52;3787;2;76;118;4;9;20;0;4068;248;19;394;;21/04/2015;190;3777;4;44;127;2;14;15;0;4173;269;7;486
22/04/2015;214;7809;4;125;267;14;27;37;0;8497;535;7;719;;22/04/2015;53;3916;2;72;119;8;8;21;0;4199;257;19;392;;22/04/2015;161;3893;2;53;148;6;19;16;0;4298;278;7;529
23/04/2015;184;7739;10;111;236;12;29;42;0;8363;530;7;717;;23/04/2015;79;3869;5;70;112;5;16;22;0;4178;254;18;394;;23/04/2015;105;3870;5;41;124;7;13;20;0;4185;276;7;488
24/04/2015;265;8848;4;141;234;7;27;37;0;9563;581;19;767;;24/04/2015;79;4720;4;85;106;2;12;22;0;5030;297;19;520;;24/04/2015;186;4128;0;56;128;5;15;15;0;4533;284;7;488
25/04/2015;287;8425;10;51;39;4;0;9;0;8825;534;18;751;;25/04/2015;82;4456;7;33;21;3;0;5;0;4607;284;9;431;;25/04/2015;205;3969;3;18;18;1;0;4;0;4218;250;18;528
26/04/2015;255;7986;9;47;27;0;3;6;0;8333;486;17;774;;26/04/2015;76;3596;4;28;12;0;1;2;0;3719;210;11;326;;26/04/2015;179;4390;5;19;15;0;2;4;0;4614;276;18;564
27/04/2015;169;7118;1;72;214;6;28;35;0;7643;490;7;676;;27/04/2015;28;3454;1;43;99;1;13;18;0;3657;226;18;408;;27/04/2015;141;3664;0;29;115;5;15;17;0;3986;264;7;516
28/04/2015;183;7425;6;125;192;10;28;41;0;8010;505;8;627;;28/04/2015;30;3661;2;71;95;3;14;19;0;3895;238;19;411;;28/04/2015;153;3764;4;54;97;7;14;22;0;4115;267;7;470
29/04/2015;213;7731;7;120;220;7;15;37;0;8350;528;8;683;;29/04/2015;53;3880;3;66;102;5;5;20;0;4134;251;18;417;;29/04/2015;160;3851;4;54;118;2;10;17;0;4216;277;7;478
30/04/2015;221;8559;6;131;243;8;17;44;0;9229;566;18;745;;30/04/2015;42;4450;2;73;127;4;8;23;0;4729;283;19;477;;30/04/2015;179;4109;4;58;116;4;9;21;0;4500;283;7;492
01/05/2015;263;7747;45;66;41;1;1;2;0;8166;494;11;734;;01/05/2015;80;4455;41;38;32;0;1;1;0;4648;281;11;487;;01/05/2015;183;3292;4;28;9;1;0;1;0;3518;213;17;414
02/05/2015;293;7561;22;66;63;0;2;23;0;8030;474;10;724;;02/05/2015;69;3888;20;45;28;0;1;13;0;4064;241;11;409;;02/05/2015;224;3673;2;21;35;0;1;10;0;3966;233;19;417
03/05/2015;246;8015;56;61;56;2;1;12;0;8449;491;18;879;;03/05/2015;71;3510;6;30;11;1;0;5;0;3634;208;15;248;;03/05/2015;175;4505;50;31;45;1;1;7;0;4815;284;18;633
04/05/2015;209;7583;7;126;220;12;25;41;0;8223;522;7;727;;04/05/2015;42;3652;5;81;107;7;12;21;0;3927;242;18;371;;04/05/2015;167;3931;2;45;113;5;13;20;0;4296;280;7;517
05/05/2015;221;7502;5;136;224;11;31;33;0;8163;517;18;686;;05/05/2015;53;3759;2;77;109;4;16;18;0;4038;249;19;420;;05/05/2015;168;3743;3;59;115;7;15;15;0;4125;268;7;463
06/05/2015;192;7840;9;140;236;6;27;38;0;8488;538;7;747;;06/05/2015;56;3903;4;70;114;4;10;19;0;4180;257;18;411;;06/05/2015;136;3937;5;70;122;2;17;19;0;4308;281;7;525
07/05/2015;247;7821;12;149;253;8;24;33;0;8547;539;17;705;;07/05/2015;68;3937;8;81;126;2;16;20;0;4258;260;19;421;;07/05/2015;179;3884;4;68;127;6;8;13;0;4289;279;7;498
08/05/2015;210;8610;9;159;281;11;20;33;0;9333;570;17;757;;08/05/2015;48;4495;4;83;153;3;10;17;0;4813;289;18;451;;08/05/2015;162;4115;5;76;128;8;10;16;0;4520;281;7;497
09/05/2015;249;8869;4;67;67;1;7;29;0;9293;553;17;673;;09/05/2015;67;4660;2;38;37;1;5;16;0;4826;289;9;372;;09/05/2015;182;4209;2;29;30;0;2;13;0;4467;264;17;403
10/05/2015;384;9199;3;65;28;1;0;6;0;9686;551;18;910;;10/05/2015;113;4297;2;34;14;0;0;3;0;4463;261;11;484;;10/05/2015;271;4902;1;31;14;1;0;3;0;5223;290;17;673
11/05/2015;268;7654;5;134;259;16;28;38;0;8402;534;7;720;;11/05/2015;55;3714;3;76;132;8;14;20;0;4022;248;18;405;;11/05/2015;213;3940;2;58;127;8;14;18;0;4380;286;7;518
12/05/2015;221;7821;3;138;235;9;32;37;0;8496;530;7;726;;12/05/2015;59;3877;0;75;122;5;13;18;0;4169;252;18;417;;12/05/2015;162;3944;3;63;113;4;19;19;0;4327;278;7;511
13/05/2015;262;8115;4;122;214;6;25;39;0;8787;552;7;720;;13/05/2015;86;4059;2;73;107;6;15;22;0;4370;267;18;422;;13/05/2015;176;4056;2;49;107;0;10;17;0;4417;285;7;503
14/05/2015;263;7756;9;135;225;4;36;37;0;8465;526;7;699;;14/05/2015;81;3920;5;83;104;2;21;22;0;4238;251;18;403;;14/05/2015;182;3836;4;52;121;2;15;15;0;4227;275;7;481
15/05/2015;219;8236;7;118;222;6;21;48;0;8877;538;18;677;;15/05/2015;60;4303;1;70;113;3;9;26;0;4585;273;19;487;;15/05/2015;159;3933;6;48;109;3;12;22;0;4292;266;7;478
16/05/2015;283;8405;13;67;81;0;1;32;0;8882;520;19;640;;16/05/2015;91;4447;6;36;44;0;1;18;0;4643;271;12;367;;16/05/2015;192;3958;7;31;37;0;0;14;0;4239;249;16;336
17/05/2015;317;9420;3;59;33;2;0;9;0;9843;559;18;948;;17/05/2015;103;4403;1;31;15;0;0;4;0;4557;265;12;519;;17/05/2015;214;5017;2;28;18;2;0;5;0;5286;294;18;651
18/05/2015;254;7573;5;112;232;12;26;39;0;8253;516;7;715;;18/05/2015;69;3712;3;67;111;8;13;19;0;4002;244;17;404;;18/05/2015;185;3861;2;45;121;4;13;20;0;4251;272;7;508
19/05/2015;214;7677;8;120;209;11;27;34;0;8300;518;7;696;;19/05/2015;50;3854;6;74;98;6;11;19;0;4118;249;18;413;;19/05/2015;164;3823;2;46;111;5;16;15;0;4182;268;7;493
20/05/2015;205;7738;5;114;215;5;26;37;0;8345;534;7;711;;20/05/2015;35;3901;5;63;101;0;13;21;0;4139;257;18;403;;20/05/2015;170;3837;0;51;114;5;13;16;0;4206;276;7;506
21/05/2015;195;7638;4;130;224;11;34;36;0;8272;513;7;665;;21/05/2015;43;3834;2;64;116;5;20;20;0;4104;247;19;418;;21/05/2015;152;3804;2;66;108;6;14;16;0;4168;267;7;483
22/05/2015;189;7810;13;144;206;9;23;44;0;8438;522;7;653;;22/05/2015;45;4091;13;80;104;5;16;22;0;4376;264;19;456;;22/05/2015;144;3719;0;64;102;4;7;22;0;4062;258;7;473
23/05/2015;215;7604;12;69;64;1;1;28;0;7994;484;18;600;;23/05/2015;57;4035;10;43;29;1;1;16;0;4192;251;19;330;;23/05/2015;158;3569;2;26;35;0;0;12;0;3802;232;15;285
24/05/2015;255;7294;19;48;35;1;3;10;0;7665;435;18;722;;24/05/2015;55;3430;2;23;14;0;1;5;0;3530;201;10;285;;24/05/2015;200;3864;17;25;21;1;2;5;0;4135;234;18;449
25/05/2015;199;7753;7;133;251;14;33;41;0;8431;535;17;715;;25/05/2015;38;3822;5;62;121;5;17;21;0;4091;252;19;410;;25/05/2015;161;3931;2;71;130;9;16;20;0;4340;283;7;503
26/05/2015;197;7372;3;99;229;10;19;35;0;7964;494;7;674;;26/05/2015;66;3679;2;58;109;2;11;20;0;3947;236;19;420;;26/05/2015;131;3693;1;41;120;8;8;15;0;4017;258;7;484
27/05/2015;176;7700;5;109;222;8;18;40;0;8278;520;17;690;;27/05/2015;55;3873;2;65;110;5;8;21;0;4139;252;18;396;;27/05/2015;121;3827;3;44;112;3;10;19;0;4139;268;7;490
28/05/2015;211;8059;9;153;233;13;30;39;0;8747;543;7;711;;28/05/2015;67;4047;5;75;120;6;13;20;0;4353;264;19;390;;28/05/2015;144;4012;4;78;113;7;17;19;0;4394;279;7;480